SCP
1 0 1 1 0 0 0 0 0 0 0 0 1 1 0 0 0 0 0 0 0 0 0 0 0 0 0 0 0 0 0 0 0 0 0 0 0 0 0 0 0 0 0
1 1 1 1 0 0 0 0 0 0 0 1 1 1 0 0 0 0 0 0 0 0 0 0 0 0 0 0 0 0 0 0 0 0 0 0 0 0 0 0 0 0 0
0 1 1 1 1 1 0 0 0 1 1 1 1 0 0 0 0 0 0 0 0 0 0 0 0 0 0 0 0 0 0 0 0 0 0 0 0 0 0 0 0 0 0
2 1 1 1 1 1 1 1 1 1 1 0 0 0 0 0 0 0 0 0 0 0 0 0 0 0 0 0 0 0 0 0 0 0 0 0 0 0 0 0 0 0 0
2 1 1 1 1 1 1 1 1 1 1 1 1 1 0 0 0 0 0 0 0 0 0 0 0 0 0 0 0 0 0 0 0 0 0 0 0 0 0 0 0 0 0
1 1 1 1 1 0 0 0 0 0 0 0 0 0 0 0 0 0 0 0 0 0 0 0 0 0 0 0 0 0 0 0 0 0 0 0 0 0 0 0 0 0 0
1 1 1 1 1 0 0 0 0 0 0 0 0 0 0 0 0 0 0 0 0 0 0 0 0 0 0 0 0 0 0 0 0 0 0 0 0 0 0 0 0 0 0
1 1 2 2 0 0 0 0 0 0 0 0 0 0 0 0 0 0 0 0 0 0 0 0 0 0 0 0 0 0 0 0 0 0 0 0 0 0 0 0 0 0 0
1 1 2 2 0 0 0 0 0 0 0 0 0 0 0 0 0 0 0 0 0 0 0 0 0 0 0 0 0 0 0 0 0 0 0 0 0 0 0 0 0 0 0
1 2 1 0 0 0 0 0 0 0 0 0 0 0 0 0 0 0 0 0 0 0 0 0 0 0 0 0 0 0 0 0 0 0 0 0 0 0 0 0 0 0 0
2 1 0 0 0 0 0 0 0 0 0 0 0 0 0 0 0 0 0 0 0 0 0 0 0 0 0 0 0 0 0 0 0 0 0 0 0 0 0 0 0 0 0
1 0 0 0 0 0 0 0 0 0 0 0 0 0 0 0 0 0 0 0 0 0 0 0 0 0 0 0 0 0 0 0 0 0 0 0 0 0 0 0 0 0 0
0 0 0 0 0 0 0 0 0 0 0 0 0 0 0 0 0 0 0 0 0 0 0 0 0 0 0 0 0 0 0 0 0 0 0 0 0 0 0 0 0 0 0
0 0 0 0 0 0 0 0 0 0 0 0 0 0 0 0 0 0 0 0 0 0 0 0 0 0 0 0 0 0 0 0 0 0 0 0 0 0 0 0 0 0 0
0 0 0 0 0 0 0 0 0 0 0 0 0 0 0 0 0 0 0 0 0 0 0 0 0 0 0 0 0 0 0 0 0 0 0 0 0 0 0 0 0 0 0
0 0 0 0 0 0 0 0 0 0 0 0 0 0 0 0 0 0 0 0 0 0 0 0 0 0 0 0 0 0 0 0 0 0 0 0 0 0 0 0 0 0 0
0 0 0 0 0 0 0 0 0 0 0 0 0 0 0 0 0 0 0 0 0 0 0 0 0 0 0 0 0 0 0 0 0 0 0 0 0 0 0 0 0 0 0
0 0 0 0 0 0 0 0 0 0 0 0 0 0 0 0 0 0 0 0 0 0 0 0 0 0 0 0 0 0 0 0 0 0 0 0 0 0 0 0 0 0 0
0 0 0 0 0 0 0 0 0 0 0 0 0 0 0 0 0 0 0 0 0 -0 0 0 0 0 0 0 0 0 0 0 0 0 0 0 0 0 0 0 0 0 0
0 0 0 0 0 0 0 0 0 0 0 0 0 0 0 0 0 0 0 0 0 0 0 0 0 0 0 0 0 0 0 0 0 0 0 0 0 0 0 0 0 0 0
0 0 0 0 0 0 0 0 0 0 0 0 0 0 0 0 0 0 -0 -0 0 0 0 0 0 0 0 0 0 0 0 0 0 0 0 0 0 0 0 0 0 0 0
0 0 0 0 0 0 0 0 0 0 0 0 0 0 0 0 0 0 0 0 0 0 0 0 0 0 0 0 0 0 0 0 0 0 0 0 0 0 0 0 0 0 0
0 0 0 0 0 0 0 0 0 0 0 0 0 0 0 0 0 0 0 0 0 0 0 0 0 0 0 0 0 0 0 0 0 0 0 0 0 0 0 0 0 0 0
0 0 0 0 0 0 0 0 0 0 0 0 0 0 0 0 0 0 0 0 0 0 0 0 0 0 0 0 0 0 0 0 0 0 0 0 0 0 0 0 0 0 0
0 0 0 0 0 0 0 0 0 0 0 0 0 0 0 0 0 0 0 0 0 0 0 0 0 0 0 0 0 0 0 0 0 0 0 0 0 0 0 0 0 0 0
0 -0 -0 0 0 0 0 0 0 0 0 0 0 0 0 0 0 0 0 0 0 0 0 0 0 0 0 0 0 0 0 0 0 0 0 0 0 0 0 0 0 0 0
Wind_Speed_500mb
74 73 77 77 77 78 74 69 70 62 57 55 52 52 48 41 27 32 33 37 39 36 39 34 24 31 30 26 37 35 34 34 38 39 40 40 28 27 26 29 37 34 31
80 77 74 71 77 75 66 64 64 54 59 59 56 54 43 38 34 34 34 33 30 30 29 20 20 22 29 25 38 34 24 26 27 28 30 19 25 6 28 25 23 28 31
90 84 73 70 73 70 67 65 60 58 60 61 61 54 47 43 37 32 29 27 21 17 19 17 18 22 24 20 20 16 16 16 18 18 16 11 9 36 16 23 31 32 32
79 75 66 64 65 64 61 62 62 61 62 60 60 55 54 51 38 23 20 17 14 13 16 18 12 7 6 6 8 11 13 14 15 12 12 11 18 17 24 38 37 35 35
80 79 75 71 63 60 61 59 56 55 56 57 58 55 49 42 35 22 23 20 18 15 16 7 5 5 8 10 11 11 12 14 15 15 15 14 14 14 27 36 55 47 35
79 76 77 68 67 66 63 63 58 58 54 51 48 46 45 43 41 35 32 24 20 21 17 14 10 8 10 11 12 13 13 13 13 12 14 18 20 22 26 37 50 52 49
91 87 83 80 77 75 69 66 59 60 57 52 46 39 34 39 35 33 29 32 32 25 21 15 11 8 10 14 15 16 17 15 13 11 11 13 18 22 26 30 40 45 57
95 104 99 94 85 75 65 58 56 54 54 50 43 38 36 36 34 32 34 33 29 26 22 13 6 8 14 18 19 19 19 20 18 16 15 17 20 24 28 29 35 45 49
78 100 107 96 87 68 58 52 50 51 49 43 42 42 40 41 40 39 35 36 34 29 19 7 4 10 15 19 20 19 17 17 19 21 22 23 25 26 29 32 32 33 28
66 72 70 78 70 59 52 47 45 46 42 39 38 37 37 37 37 39 40 36 31 23 14 6 2 9 17 22 24 25 25 22 22 23 25 27 29 30 30 33 34 34 35
46 52 62 62 64 57 53 48 42 40 37 33 39 42 42 36 37 39 38 34 24 16 9 6 6 12 19 23 26 28 27 27 28 28 30 32 36 37 38 38 37 37 41
51 59 64 70 71 65 57 49 43 37 32 36 39 42 38 43 45 42 38 30 21 15 11 9 11 14 20 27 31 31 31 33 35 37 38 40 42 41 39 40 37 37 38
57 60 70 84 79 73 67 61 57 42 40 41 46 45 39 48 45 41 34 27 20 15 13 15 15 18 22 29 36 38 38 38 40 42 43 42 43 40 37 33 30 30 33
62 65 85 86 80 77 73 75 67 60 57 50 55 57 55 49 46 39 33 27 22 17 15 17 17 20 25 30 35 39 42 40 40 41 42 43 41 36 32 30 29 27 26
62 77 96 94 90 86 82 75 71 65 64 59 61 59 52 52 47 43 37 32 27 20 15 17 21 24 28 35 41 47 47 44 45 45 44 42 35 24 23 28 28 31 30
60 75 90 95 95 87 86 78 67 67 71 63 67 66 63 58 53 45 40 36 27 19 19 23 26 30 34 41 49 52 50 48 46 44 41 35 26 20 18 22 24 30 29
36 48 79 95 92 81 86 77 72 70 67 71 72 70 66 62 56 50 44 35 26 23 25 27 32 39 43 46 47 45 46 42 31 26 30 33 30 23 21 23 24 27 27
37 39 52 56 68 71 68 63 64 69 65 71 73 72 66 60 56 50 40 28 24 26 27 32 37 41 39 39 34 30 38 30 26 21 24 30 26 30 30 30 30 26 27
21 24 35 41 51 55 57 58 62 61 62 61 61 57 66 62 43 40 20 18 25 33 36 38 41 40 39 36 32 27 31 27 24 22 26 29 29 33 38 38 38 35 33
17 25 35 45 49 48 53 57 52 53 47 38 45 40 34 12 16 10 16 27 25 31 39 42 44 42 38 33 27 24 29 33 32 33 30 30 36 40 36 38 37 42 42
56 53 57 63 61 57 61 64 61 62 52 39 20 23 8 14 19 20 21 28 34 39 42 44 39 36 35 32 26 26 29 36 38 38 39 35 39 43 41 40 41 44 47
83 80 79 80 73 69 69 70 62 45 35 29 21 13 2 8 15 28 23 29 35 39 35 33 35 32 30 28 28 32 33 36 43 48 45 41 47 46 47 54 57 58 57
84 80 81 72 69 61 53 48 42 30 21 15 11 5 2 8 16 22 22 26 27 30 34 36 38 40 37 38 38 34 34 37 42 44 45 47 50 54 56 51 51 50 50
81 75 71 64 57 61 53 49 39 36 31 23 18 15 9 9 14 13 20 19 22 27 31 34 38 43 43 43 42 40 43 46 49 46 48 50 51 51 52 55 55 54 52
70 68 66 57 38 57 48 40 35 32 28 20 20 17 13 8 10 14 18 20 22 26 31 36 42 47 47 48 54 57 60 59 60 62 64 65 63 61 58 54 44 41 41
59 60 52 45 49 50 51 43 39 26 28 29 28 26 22 21 22 20 19 16 20 21 24 29 34 38 40 43 51 54 50 51 48 48 48 49 48 46 44 42 42 39 37
Wind_Direction_500mb
225 230 235 237 239 240 234 227 224 225 217 216 215 223 232 235 248 257 258 257 260 263 274 286 299 289 285 302 318 319 325 317 318 317 311 315 311 299 287 315 317 324 317
226 230 231 236 236 236 228 220 223 220 218 221 222 227 226 227 244 250 255 264 271 274 278 284 288 298 306 308 305 311 333 328 327 330 333 331 325 236 302 321 342 339 337
225 226 224 222 223 221 220 213 213 215 216 220 219 218 219 230 242 249 251 270 275 283 299 294 294 295 296 314 318 330 335 339 350 360 9 341 331 328 333 330 334 335 340
220 218 210 211 212 213 211 211 213 214 217 217 216 225 229 233 238 235 241 241 240 256 275 277 282 301 344 5 19 22 13 9 7 7 8 349 330 337 322 322 332 335 341
213 210 207 207 204 203 201 204 206 207 213 217 220 222 228 233 235 223 214 208 207 220 238 197 133 95 66 44 32 14 2 353 353 359 349 342 341 340 327 324 332 336 352
212 213 209 206 204 202 200 201 206 206 205 207 210 215 220 227 211 216 197 193 178 166 156 143 126 91 62 42 20 9 355 349 346 339 333 333 347 342 344 329 325 326 333
217 216 215 211 210 208 204 204 205 204 203 205 205 206 210 204 217 199 196 171 160 159 154 147 125 83 29 14 7 1 360 360 357 350 336 331 323 325 322 323 324 328 324
222 221 219 216 213 210 204 202 202 204 200 199 201 196 196 194 185 176 166 163 162 156 149 139 95 35 16 3 0 359 356 354 345 332 322 311 303 306 318 327 330 328 322
227 226 221 217 213 206 202 204 202 202 191 184 184 182 185 181 175 172 173 169 164 160 153 138 41 11 2 356 351 347 345 342 332 323 314 309 303 299 296 301 309 319 322
224 216 203 209 204 196 195 189 187 188 181 178 177 173 173 176 178 178 172 171 168 165 164 171 289 339 349 347 342 340 336 332 326 319 313 309 304 300 296 293 291 292 297
205 189 193 197 186 183 179 175 181 184 179 182 188 178 172 182 186 179 178 175 179 180 203 223 280 320 328 333 336 331 328 324 320 315 311 308 306 303 297 290 287 284 281
188 188 187 183 177 172 170 173 179 189 194 197 191 185 181 189 184 188 186 181 190 204 233 265 287 304 319 330 332 328 326 321 316 313 312 311 309 308 301 291 287 282 276
182 186 187 179 176 175 176 179 179 189 201 204 197 194 196 194 194 192 189 196 204 222 246 266 286 308 319 330 330 326 324 320 315 311 311 312 314 313 308 299 292 285 280
187 189 184 181 180 182 187 183 181 187 203 214 218 214 203 200 198 195 198 201 209 230 258 275 293 306 316 320 321 322 322 319 314 310 309 311 311 310 306 304 305 295 292
191 194 187 186 189 191 189 189 193 201 210 204 212 207 205 201 200 198 200 205 214 225 251 281 301 305 311 317 318 321 319 317 314 307 304 307 309 306 301 302 305 305 300
210 203 196 194 195 193 194 198 202 198 195 210 209 205 204 203 203 203 207 211 221 245 268 280 293 301 311 316 319 319 315 315 310 304 300 302 294 286 269 274 284 299 310
259 233 211 206 202 203 202 203 204 204 206 207 210 210 207 205 206 207 211 220 231 246 263 282 294 302 310 314 313 310 313 316 311 313 314 313 305 300 282 267 274 274 282
280 252 241 226 213 213 209 210 209 209 210 212 215 216 209 208 205 205 209 213 237 263 282 290 299 308 312 314 311 313 323 319 317 319 311 299 303 307 303 295 277 277 272
298 254 219 214 210 208 208 205 206 210 208 205 206 206 196 189 180 185 205 251 285 294 296 297 302 307 311 310 308 310 318 312 314 308 302 300 297 296 305 308 293 278 276
108 149 171 170 180 170 182 188 180 182 175 157 151 141 136 158 185 259 273 280 279 285 299 304 304 305 308 312 304 295 294 304 303 297 297 289 287 291 297 302 303 295 286
104 118 123 120 118 133 154 144 132 117 110 109 88 98 145 162 270 260 277 296 301 300 296 300 303 309 313 314 305 302 295 291 293 291 290 286 290 291 289 292 294 294 298
90 97 108 106 107 110 117 110 107 107 107 102 104 103 300 318 286 305 310 301 296 296 295 296 304 304 304 295 295 291 293 287 284 281 281 281 280 281 284 285 288 286 285
87 87 85 86 93 90 88 87 88 91 96 86 67 45 47 292 303 286 297 293 290 285 290 294 301 304 305 302 300 300 290 283 279 278 281 279 277 280 284 282 290 294 289
77 79 79 68 75 84 78 77 69 70 66 52 73 61 49 13 299 307 288 294 300 303 307 310 309 309 312 316 311 300 293 285 286 286 284 282 282 281 281 283 287 288 284
70 67 70 72 60 73 76 76 70 62 57 59 40 45 38 339 322 326 307 314 307 310 315 309 304 304 309 301 292 289 287 288 288 287 286 285 283 283 285 288 289 289 283
71 70 67 65 64 66 66 60 60 60 56 51 36 29 27 16 7 351 343 339 324 318 312 306 299 298 289 293 288 286 292 292 292 293 293 294 288 281 279 278 283 288 283
Wind_Speed_850mb
74 73 77 77 77 78 74 69 70 62 57 55 52 52 48 41 27 32 33 37 39 36 39 34 24 31 30 26 37 35 34 34 38 39 40 40 28 27 26 29 37 34 31
80 77 74 71 77 75 66 64 64 54 59 59 56 54 43 38 34 34 34 33 30 30 29 20 20 22 29 25 38 34 24 26 27 28 30 19 25 6 28 25 23 28 31
90 84 73 70 73 70 67 65 60 58 60 61 61 54 47 43 37 32 29 27 21 17 19 17 18 22 24 20 20 16 16 16 18 18 16 11 9 36 16 23 31 32 32
79 75 66 64 65 64 61 62 62 61 62 60 60 55 54 51 38 23 20 17 14 13 16 18 12 7 6 6 8 11 13 14 15 12 12 11 18 17 24 38 37 35 35
80 79 75 71 63 60 61 59 56 55 56 57 58 55 49 42 35 22 23 20 18 15 16 7 5 5 8 10 11 11 12 14 15 15 15 14 14 14 27 36 55 47 35
79 76 77 68 67 66 63 63 58 58 54 51 48 46 45 43 41 35 32 24 20 21 17 14 10 8 10 11 12 13 13 13 13 12 14 18 20 22 26 37 50 52 49
91 87 83 80 77 75 69 66 59 60 57 52 46 39 34 39 35 33 29 32 32 25 21 15 11 8 10 14 15 16 17 15 13 11 11 13 18 22 26 30 40 45 57
95 104 99 94 85 75 65 58 56 54 54 50 43 38 36 36 34 32 34 33 29 26 22 13 6 8 14 18 19 19 19 20 18 16 15 17 20 24 28 29 35 45 49
78 100 107 96 87 68 58 52 50 51 49 43 42 42 40 41 40 39 35 36 34 29 19 7 4 10 15 19 20 19 17 17 19 21 22 23 25 26 29 32 32 33 28
66 72 70 78 70 59 52 47 45 46 42 39 38 37 37 37 37 39 40 36 31 23 14 6 2 9 17 22 24 25 25 22 22 23 25 27 29 30 30 33 34 34 35
46 52 62 62 64 57 53 48 42 40 37 33 39 42 42 36 37 39 38 34 24 16 9 6 6 12 19 23 26 28 27 27 28 28 30 32 36 37 38 38 37 37 41
51 59 64 70 71 65 57 49 43 37 32 36 39 42 38 43 45 42 38 30 21 15 11 9 11 14 20 27 31 31 31 33 35 37 38 40 42 41 39 40 37 37 38
57 60 70 84 79 73 67 61 57 42 40 41 46 45 39 48 45 41 34 27 20 15 13 15 15 18 22 29 36 38 38 38 40 42 43 42 43 40 37 33 30 30 33
62 65 85 86 80 77 73 75 67 60 57 50 55 57 55 49 46 39 33 27 22 17 15 17 17 20 25 30 35 39 42 40 40 41 42 43 41 36 32 30 29 27 26
62 77 96 94 90 86 82 75 71 65 64 59 61 59 52 52 47 43 37 32 27 20 15 17 21 24 28 35 41 47 47 44 45 45 44 42 35 24 23 28 28 31 30
60 75 90 95 95 87 86 78 67 67 71 63 67 66 63 58 53 45 40 36 27 19 19 23 26 30 34 41 49 52 50 48 46 44 41 35 26 20 18 22 24 30 29
36 48 79 95 92 81 86 77 72 70 67 71 72 70 66 62 56 50 44 35 26 23 25 27 32 39 43 46 47 45 46 42 31 26 30 33 30 23 21 23 24 27 27
37 39 52 56 68 71 68 63 64 69 65 71 73 72 66 60 56 50 40 28 24 26 27 32 37 41 39 39 34 30 38 30 26 21 24 30 26 30 30 30 30 26 27
21 24 35 41 51 55 57 58 62 61 62 61 61 57 66 62 43 40 20 18 25 33 36 38 41 40 39 36 32 27 31 27 24 22 26 29 29 33 38 38 38 35 33
17 25 35 45 49 48 53 57 52 53 47 38 45 40 34 12 16 10 16 27 25 31 39 42 44 42 38 33 27 24 29 33 32 33 30 30 36 40 36 38 37 42 42
56 53 57 63 61 57 61 64 61 62 52 39 20 23 8 14 19 20 21 28 34 39 42 44 39 36 35 32 26 26 29 36 38 38 39 35 39 43 41 40 41 44 47
83 80 79 80 73 69 69 70 62 45 35 29 21 13 2 8 15 28 23 29 35 39 35 33 35 32 30 28 28 32 33 36 43 48 45 41 47 46 47 54 57 58 57
84 80 81 72 69 61 53 48 42 30 21 15 11 5 2 8 16 22 22 26 27 30 34 36 38 40 37 38 38 34 34 37 42 44 45 47 50 54 56 51 51 50 50
81 75 71 64 57 61 53 49 39 36 31 23 18 15 9 9 14 13 20 19 22 27 31 34 38 43 43 43 42 40 43 46 49 46 48 50 51 51 52 55 55 54 52
70 68 66 57 38 57 48 40 35 32 28 20 20 17 13 8 10 14 18 20 22 26 31 36 42 47 47 48 54 57 60 59 60 62 64 65 63 61 58 54 44 41 41
59 60 52 45 49 50 51 43 39 26 28 29 28 26 22 21 22 20 19 16 20 21 24 29 34 38 40 43 51 54 50 51 48 48 48 49 48 46 44 42 42 39 37
Wind_Direction_850mb
225 230 235 237 239 240 234 227 224 225 217 216 215 223 232 235 248 257 258 257 260 263 274 286 299 289 285 302 318 319 325 317 318 317 311 315 311 299 287 315 317 324 317
226 230 231 236 236 236 228 220 223 220 218 221 222 227 226 227 244 250 255 264 271 274 278 284 288 298 306 308 305 311 333 328 327 330 333 331 325 236 302 321 342 339 337
225 226 224 222 223 221 220 213 213 215 216 220 219 218 219 230 242 249 251 270 275 283 299 294 294 295 296 314 318 330 335 339 350 360 9 341 331 328 333 330 334 335 340
220 218 210 211 212 213 211 211 213 214 217 217 216 225 229 233 238 235 241 241 240 256 275 277 282 301 344 5 19 22 13 9 7 7 8 349 330 337 322 322 332 335 341
213 210 207 207 204 203 201 204 206 207 213 217 220 222 228 233 235 223 214 208 207 220 238 197 133 95 66 44 32 14 2 353 353 359 349 342 341 340 327 324 332 336 352
212 213 209 206 204 202 200 201 206 206 205 207 210 215 220 227 211 216 197 193 178 166 156 143 126 91 62 42 20 9 355 349 346 339 333 333 347 342 344 329 325 326 333
217 216 215 211 210 208 204 204 205 204 203 205 205 206 210 204 217 199 196 171 160 159 154 147 125 83 29 14 7 1 360 360 357 350 336 331 323 325 322 323 324 328 324
222 221 219 216 213 210 204 202 202 204 200 199 201 196 196 194 185 176 166 163 162 156 149 139 95 35 16 3 0 359 356 354 345 332 322 311 303 306 318 327 330 328 322
227 226 221 217 213 206 202 204 202 202 191 184 184 182 185 181 175 172 173 169 164 160 153 138 41 11 2 356 351 347 345 342 332 323 314 309 303 299 296 301 309 319 322
224 216 203 209 204 196 195 189 187 188 181 178 177 173 173 176 178 178 172 171 168 165 164 171 289 339 349 347 342 340 336 332 326 319 313 309 304 300 296 293 291 292 297
205 189 193 197 186 183 179 175 181 184 179 182 188 178 172 182 186 179 178 175 179 180 203 223 280 320 328 333 336 331 328 324 320 315 311 308 306 303 297 290 287 284 281
188 188 187 183 177 172 170 173 179 189 194 197 191 185 181 189 184 188 186 181 190 204 233 265 287 304 319 330 332 328 326 321 316 313 312 311 309 308 301 291 287 282 276
182 186 187 179 176 175 176 179 179 189 201 204 197 194 196 194 194 192 189 196 204 222 246 266 286 308 319 330 330 326 324 320 315 311 311 312 314 313 308 299 292 285 280
187 189 184 181 180 182 187 183 181 187 203 214 218 214 203 200 198 195 198 201 209 230 258 275 293 306 316 320 321 322 322 319 314 310 309 311 311 310 306 304 305 295 292
191 194 187 186 189 191 189 189 193 201 210 204 212 207 205 201 200 198 200 205 214 225 251 281 301 305 311 317 318 321 319 317 314 307 304 307 309 306 301 302 305 305 300
210 203 196 194 195 193 194 198 202 198 195 210 209 205 204 203 203 203 207 211 221 245 268 280 293 301 311 316 319 319 315 315 310 304 300 302 294 286 269 274 284 299 310
259 233 211 206 202 203 202 203 204 204 206 207 210 210 207 205 206 207 211 220 231 246 263 282 294 302 310 314 313 310 313 316 311 313 314 313 305 300 282 267 274 274 282
280 252 241 226 213 213 209 210 209 209 210 212 215 216 209 208 205 205 209 213 237 263 282 290 299 308 312 314 311 313 323 319 317 319 311 299 303 307 303 295 277 277 272
298 254 219 214 210 208 208 205 206 210 208 205 206 206 196 189 180 185 205 251 285 294 296 297 302 307 311 310 308 310 318 312 314 308 302 300 297 296 305 308 293 278 276
108 149 171 170 180 170 182 188 180 182 175 157 151 141 136 158 185 259 273 280 279 285 299 304 304 305 308 312 304 295 294 304 303 297 297 289 287 291 297 302 303 295 286
104 118 123 120 118 133 154 144 132 117 110 109 88 98 145 162 270 260 277 296 301 300 296 300 303 309 313 314 305 302 295 291 293 291 290 286 290 291 289 292 294 294 298
90 97 108 106 107 110 117 110 107 107 107 102 104 103 300 318 286 305 310 301 296 296 295 296 304 304 304 295 295 291 293 287 284 281 281 281 280 281 284 285 288 286 285
87 87 85 86 93 90 88 87 88 91 96 86 67 45 47 292 303 286 297 293 290 285 290 294 301 304 305 302 300 300 290 283 279 278 281 279 277 280 284 282 290 294 289
77 79 79 68 75 84 78 77 69 70 66 52 73 61 49 13 299 307 288 294 300 303 307 310 309 309 312 316 311 300 293 285 286 286 284 282 282 281 281 283 287 288 284
70 67 70 72 60 73 76 76 70 62 57 59 40 45 38 339 322 326 307 314 307 310 315 309 304 304 309 301 292 289 287 288 288 287 286 285 283 283 285 288 289 289 283
71 70 67 65 64 66 66 60 60 60 56 51 36 29 27 16 7 351 343 339 324 318 312 306 299 298 289 293 288 286 292 292 292 293 293 294 288 281 279 278 283 288 283